Weather Roundup
Issued by NWS

Home | Current Version | Previous Version | Graphics & Text | Print | Product List | Glossary Off
Versions: 1 2 3 4 5 6 7 8 9 10 11 12 13 14 15 16 17 18 19 20 21 22 23 24 25 26 27 28 29 30 31 32 33 34 35 36 37 38 39 40 41 42 43 44 45 46 47 48 49 50

000
NZUS93 KARX 030710
HRRWXR

CURRENT HOURLY OBSERVATIONS ACROSS
MUCH OF THE UPPER MISSISSIPPI VALLEY
NATIONAL WEATHER SERVICE LA CROSSE WI
200 AM CDT FRI JUL 03 2015


...SOUTHEAST MINNESOTA...


CITY           SKY/WX    TMP DP  RH WIND       PRES   REMARKS
ROCHESTER      PTCLDY    56  54  93 S5        30.00F
ROCHESTER/MAYO FAIR      60  55  83 CALM      30.00F
WINONA         PTCLDY    55  55 100 CALM      30.00R
AUSTIN         PTCLDY    57  55  94 CALM      30.00F
ALBERT LEA     PTCLDY    57  55  94 CALM      30.01S FOG
DODGE CENTER   PTCLDY    57  54  88 S5        30.00F
PRESTON        PTCLDY    58  53  83 S5        30.01S
OWATONNA       CLEAR     57  54  88 CALM      30.00S
FARIBAULT      CLEAR     54  52  94 CALM      30.00S
$$

...ELSEWHERE IN MINNESOTA...


CITY           SKY/WX    TMP DP  RH WIND       PRES   REMARKS
MINNEAPOLIS    CLEAR     65  56  72 S3        29.98S
INTNL FALLS    CLOUDY    65  56  72 W6        29.86S
DULUTH         PTCLDY    63  55  75 W8        29.94S
RED WING       CLEAR     55  54  94 CALM      29.97F
REDWOOD FALLS  CLEAR     60  51  72 W6        29.99S
MANKATO        CLEAR     59  54  82 SW5       30.00S
WORTHINGTON    CLEAR     54  48  82 S5        30.02F
FAIRMONT       CLEAR     55  48  76 CALM      30.01S
$$

...SOUTHWEST WISCONSIN...


CITY           SKY/WX    TMP DP  RH WIND       PRES   REMARKS
LA CROSSE      PTCLDY    58  55  90 SE5       29.99F
PRAIRIE DU CHI MOCLDY    55  53  93 CALM      29.99F
BOSCOBEL       MOCLDY    54  52  93 CALM      30.00S
LONE ROCK      MOCLDY    53  51  93 CALM      30.01S
PLATTEVILLE    MOCLDY    57  52  82 E6        30.00S
FORT MC COY    PTCLDY    47  46  95 CALM      30.01S
CAMP DOUGLAS   PTCLDY    48  48 100 E2        29.99S FOG
VIROQUA        FAIR      57  52  81 CALM      30.01S
WIS DELLS      PTCLDY    51  47  86 CALM      30.00F
$$

...ELSEWHERE IN WISCONSIN...


CITY           SKY/WX    TMP DP  RH WIND       PRES   REMARKS
MILWAUKEE      PTCLDY    54  47  77 CALM      30.00F
MADISON        MOCLDY    57  47  69 SE3       30.00F
GREEN BAY      CLEAR     54  51  90 CALM      30.00F
EAU CLAIRE     CLEAR     57  55  93 CALM      29.98S
BLACK RVR FLS  FAIR      46  46 100 CALM      29.99F
MEDFORD        FAIR      56  51  83 S3        30.00S
WAUSAU         CLEAR     55  52  89 SE3       29.99F
WIS RAPIDS     CLEAR     57  46  66 S6        30.01F
MARSHFIELD     CLEAR     56  49  77 CALM      30.00F
RICE LAKE      CLEAR     56  55  95 CALM      29.99F FOG
$$

...NORTHEAST IOWA...


CITY           SKY/WX    TMP DP  RH WIND       PRES   REMARKS
DECORAH          N/A    N/A N/A N/A MISG        N/A
MASON CITY     MOCLDY    57  54  89 CALM      30.02S
CHARLES CITY   MOCLDY    59  57  94 CALM      30.01S
OELWEIN        PTCLDY    57  54  88 CALM      30.01S
$$

...ELSEWHERE IN IOWA...


CITY           SKY/WX    TMP DP  RH WIND       PRES   REMARKS
DES MOINES     MOCLDY    63  55  75 CALM      29.99S
IOWA CITY      CLOUDY    63  55  75 NE5       29.99F
FORT DODGE     PTCLDY    54  52  94 CALM      30.01F
$$

...NORTHERN ILLINOIS...


CITY           SKY/WX    TMP DP  RH WIND       PRES   REMARKS
CHICAGO-OHARE  CLOUDY    56  48  74 N5        29.98F
CHICAGO-MIDWAY CLOUDY    62  51  67 N6        29.97F
MOLINE         CLOUDY    62  57  83 E5        29.97F
ROCKFORD       CLOUDY    57  49  74 E6        30.00F
PEORIA         CLOUDY    66  56  70 NE9       29.95F
$$

NOTE: "FAIR" INDICATES FEW OR NO CLOUDS BELOW 12,000 FEET WITH NO
SIGNIFICANT WEATHER AND/OR OBSTRUCTIONS TO VISIBILITY. WIND
SPEEDS ARE IN MILES-PER-HOUR.



USA.gov is the U.S. government's official web portal to all federal, state and local government web resources and services.